BAW880 EGLL-EBBR

Flight info

Callsign BAW880
Flight time 0h 39m
Altitude 23000
Route DET Q70 KOK
Aircraft A320/M-SDE3FGHIRWY/LB1

Departure

Time 2026-05-07 16:21
Airport London Heathrow Airport (EGLL)

Arrival

Time 2026-05-07 17:00
Airport Brussels Airport (EBBR)
Time Latitude Longitude Altitude Speed Heading
2026-05-07 16:00 51.46822 -0.48819 86 ft 0 kts 179°
2026-05-07 16:12 51.46830 -0.48819 86 ft 4 kts 179°
2026-05-07 16:13 51.46854 -0.48820 86 ft 2 kts 179°
2026-05-07 16:13 51.46873 -0.48814 88 ft 4 kts 246°
2026-05-07 16:13 51.46876 -0.48797 88 ft 3 kts 266°
2026-05-07 16:13 51.46876 -0.48756 88 ft 4 kts 269°
2026-05-07 16:14 51.46877 -0.48722 86 ft 4 kts 269°
2026-05-07 16:14 51.46877 -0.48704 86 ft 0 kts 269°
2026-05-07 16:16 51.46877 -0.48706 86 ft 1 kts 269°
2026-05-07 16:16 51.46870 -0.48736 89 ft 4 kts 237°
2026-05-07 16:17 51.46839 -0.48750 89 ft 6 kts 184°
2026-05-07 16:17 51.46789 -0.48750 86 ft 9 kts 180°
2026-05-07 16:17 51.46720 -0.48749 86 ft 11 kts 179°
2026-05-07 16:17 51.46654 -0.48749 86 ft 4 kts 180°
2026-05-07 16:18 51.46614 -0.48761 88 ft 1 kts 198°
2026-05-07 16:18 51.46603 -0.48767 89 ft 1 kts 198°
2026-05-07 16:18 51.46587 -0.48775 88 ft 4 kts 197°
2026-05-07 16:18 51.46546 -0.48787 87 ft 8 kts 180°
2026-05-07 16:19 51.46492 -0.48747 87 ft 10 kts 133°
2026-05-07 16:19 51.46478 -0.48631 86 ft 4 kts 90°
2026-05-07 16:19 51.46478 -0.48630 86 ft 0 kts 90°
2026-05-07 16:20 51.46478 -0.48601 86 ft 13 kts 90°
2026-05-07 16:20 51.46478 -0.48033 87 ft 86 kts 90°
2026-05-07 16:20 51.46483 -0.46765 89 ft 140 kts 90°
2026-05-07 16:21 51.46491 -0.44970 219 ft 172 kts 89°
2026-05-07 16:21 51.46500 -0.43034 933 ft 174 kts 90°
2026-05-07 16:21 51.46276 -0.41113 1503 ft 185 kts 120°
2026-05-07 16:21 51.45451 -0.39375 1901 ft 204 kts 131°
2026-05-07 16:22 51.44550 -0.37459 2278 ft 229 kts 123°
2026-05-07 16:22 51.43718 -0.35123 2799 ft 253 kts 114°
2026-05-07 16:22 51.43298 -0.32333 3637 ft 261 kts 101°
2026-05-07 16:22 51.42944 -0.29496 4601 ft 265 kts 102°
2026-05-07 16:23 51.42542 -0.26583 5517 ft 271 kts 103°
2026-05-07 16:23 51.42132 -0.23621 5877 ft 272 kts 103°
2026-05-07 16:23 51.41721 -0.20663 5993 ft 272 kts 103°
2026-05-07 16:23 51.41311 -0.17707 6005 ft 271 kts 103°
2026-05-07 16:24 51.40903 -0.14763 6006 ft 271 kts 103°
2026-05-07 16:24 51.40496 -0.11812 6006 ft 271 kts 103°
2026-05-07 16:24 51.40092 -0.08864 6005 ft 271 kts 103°
2026-05-07 16:24 51.39689 -0.05921 6079 ft 273 kts 103°
2026-05-07 16:25 51.39280 -0.02934 6939 ft 274 kts 103°
2026-05-07 16:25 51.38866 0.00060 7896 ft 277 kts 104°
2026-05-07 16:25 51.38443 0.03096 8762 ft 282 kts 104°
2026-05-07 16:25 51.38013 0.06189 9635 ft 287 kts 104°
2026-05-07 16:26 51.37579 0.09295 10327 ft 297 kts 104°
2026-05-07 16:26 51.37098 0.12694 10590 ft 321 kts 104°
2026-05-07 16:26 51.36595 0.16247 10856 ft 340 kts 104°
2026-05-07 16:26 51.36240 0.18767 11250 ft 346 kts 104°
2026-05-07 16:27 51.35535 0.23778 12192 ft 351 kts 104°
2026-05-07 16:27 51.34997 0.27606 12919 ft 354 kts 104°
2026-05-07 16:27 51.34453 0.31470 13663 ft 358 kts 104°
2026-05-07 16:27 51.33900 0.35374 14342 ft 361 kts 104°
2026-05-07 16:28 51.33336 0.39319 14946 ft 366 kts 104°
2026-05-07 16:28 51.32761 0.43315 15332 ft 371 kts 104°
2026-05-07 16:28 51.32181 0.47352 15911 ft 375 kts 104°
2026-05-07 16:28 51.31593 0.51444 16491 ft 380 kts 104°
2026-05-07 16:29 51.30996 0.55590 17100 ft 384 kts 104°
2026-05-07 16:29 51.30449 0.59798 17713 ft 390 kts 99°
2026-05-07 16:29 51.30240 0.64147 18310 ft 395 kts 94°
2026-05-07 16:29 51.30087 0.68557 18888 ft 399 kts 94°
2026-05-07 16:30 51.29928 0.73001 19484 ft 403 kts 94°
2026-05-07 16:30 51.29766 0.77490 20090 ft 406 kts 94°
2026-05-07 16:30 51.29602 0.81958 20680 ft 410 kts 94°
2026-05-07 16:30 51.29432 0.86525 21255 ft 414 kts 94°
2026-05-07 16:31 51.29258 0.91140 21811 ft 417 kts 94°
2026-05-07 16:31 51.29081 0.95783 22358 ft 421 kts 94°
2026-05-07 16:31 51.28902 1.00474 22873 ft 424 kts 94°
2026-05-07 16:31 51.28721 1.05184 23040 ft 427 kts 94°
2026-05-07 16:32 51.28534 1.10001 23077 ft 440 kts 94°
2026-05-07 16:32 51.28340 1.14911 23077 ft 444 kts 94°
2026-05-07 16:32 51.28146 1.19838 23063 ft 445 kts 94°
2026-05-07 16:32 51.27947 1.24769 23076 ft 445 kts 94°
2026-05-07 16:33 51.27744 1.29707 23077 ft 445 kts 94°
2026-05-07 16:33 51.27541 1.34649 23078 ft 445 kts 94°
2026-05-07 16:33 51.27334 1.39590 23075 ft 445 kts 95°
2026-05-07 16:33 51.27126 1.44457 23073 ft 445 kts 95°
2026-05-07 16:34 51.26913 1.49456 23076 ft 445 kts 95°
2026-05-07 16:34 51.26705 1.54314 23078 ft 445 kts 95°
2026-05-07 16:34 51.26492 1.59231 23076 ft 445 kts 95°
2026-05-07 16:34 51.26275 1.64162 23076 ft 444 kts 95°
2026-05-07 16:35 51.26057 1.69080 23077 ft 444 kts 95°
2026-05-07 16:35 51.25836 1.73999 23072 ft 444 kts 95°
2026-05-07 16:35 51.25615 1.78924 23070 ft 444 kts 95°
2026-05-07 16:35 51.25395 1.83848 23058 ft 444 kts 95°
2026-05-07 16:36 51.25245 1.87167 23069 ft 444 kts 95°
2026-05-07 16:36 51.25019 1.92076 23071 ft 444 kts 95°
2026-05-07 16:36 51.24793 1.96935 23070 ft 444 kts 95°
2026-05-07 16:36 51.24561 2.01856 23071 ft 444 kts 95°
2026-05-07 16:37 51.24329 2.06773 23073 ft 444 kts 95°
2026-05-07 16:37 51.24096 2.11689 23075 ft 444 kts 95°
2026-05-07 16:37 51.23860 2.16612 23076 ft 444 kts 95°
2026-05-07 16:37 51.23621 2.21526 23075 ft 444 kts 95°
2026-05-07 16:38 51.23375 2.26448 23074 ft 445 kts 95°
2026-05-07 16:38 51.23127 2.31373 23076 ft 445 kts 96°
2026-05-07 16:38 51.22599 2.36225 23076 ft 443 kts 106°
2026-05-07 16:38 51.21579 2.40857 23076 ft 442 kts 116°
2026-05-07 16:39 51.20103 2.45132 23081 ft 440 kts 125°
2026-05-07 16:39 51.18230 2.48974 23086 ft 438 kts 132°
2026-05-07 16:39 51.16241 2.52655 23085 ft 438 kts 132°
2026-05-07 16:39 51.14253 2.56330 23087 ft 438 kts 132°
2026-05-07 16:40 51.12278 2.60016 23081 ft 438 kts 130°
2026-05-07 16:40 51.10593 2.63984 23079 ft 440 kts 121°
2026-05-07 16:40 51.09301 2.68476 23083 ft 442 kts 110°
2026-05-07 16:40 51.08502 2.73198 23083 ft 443 kts 102°
2026-05-07 16:41 51.07944 2.77960 23082 ft 443 kts 101°
2026-05-07 16:41 51.07374 2.82770 23091 ft 443 kts 102°
2026-05-07 16:41 51.06793 2.87584 23088 ft 443 kts 102°
2026-05-07 16:41 51.06206 2.92388 23088 ft 443 kts 102°
2026-05-07 16:42 51.05616 2.97194 23088 ft 443 kts 102°
2026-05-07 16:42 51.05028 3.01995 23086 ft 443 kts 102°
2026-05-07 16:42 51.04438 3.06808 23085 ft 442 kts 102°
2026-05-07 16:42 51.03849 3.11602 23083 ft 442 kts 102°
2026-05-07 16:43 51.03258 3.16396 23080 ft 442 kts 102°
2026-05-07 16:43 51.02665 3.21184 23077 ft 442 kts 102°
2026-05-07 16:43 51.02072 3.25972 23073 ft 442 kts 102°
2026-05-07 16:43 51.01480 3.30705 23067 ft 442 kts 102°
2026-05-07 16:44 51.00878 3.35492 23064 ft 442 kts 102°
2026-05-07 16:44 51.00275 3.40277 23041 ft 440 kts 102°
2026-05-07 16:44 50.99684 3.44962 22770 ft 427 kts 102°
2026-05-07 16:44 50.99105 3.49554 22502 ft 422 kts 102°
2026-05-07 16:45 50.98528 3.54104 22229 ft 419 kts 102°
2026-05-07 16:45 50.97954 3.58641 21958 ft 417 kts 102°
2026-05-07 16:45 50.97381 3.63141 21661 ft 414 kts 102°
2026-05-07 16:45 50.96809 3.67598 21119 ft 411 kts 102°
2026-05-07 16:46 50.96239 3.72028 20573 ft 408 kts 102°
2026-05-07 16:46 50.95671 3.76425 20045 ft 406 kts 102°
2026-05-07 16:46 50.95105 3.80804 19515 ft 404 kts 102°
2026-05-07 16:46 50.94542 3.85155 18984 ft 402 kts 102°
2026-05-07 16:47 50.93980 3.89484 18436 ft 400 kts 102°
2026-05-07 16:47 50.93431 3.93815 17836 ft 398 kts 99°
2026-05-07 16:47 50.93239 3.98114 17285 ft 395 kts 88°
2026-05-07 16:47 50.93561 4.02412 16738 ft 391 kts 77°
2026-05-07 16:48 50.94357 4.06511 16157 ft 387 kts 70°
2026-05-07 16:48 50.95277 4.10504 15597 ft 384 kts 70°
2026-05-07 16:48 50.96187 4.14468 15022 ft 381 kts 70°
2026-05-07 16:48 50.97086 4.18396 14440 ft 377 kts 70°
2026-05-07 16:49 50.97977 4.22297 13875 ft 374 kts 70°
2026-05-07 16:49 50.98858 4.26169 13254 ft 371 kts 70°
2026-05-07 16:49 50.99729 4.30001 12681 ft 367 kts 70°
2026-05-07 16:49 51.00587 4.33792 12119 ft 363 kts 70°
2026-05-07 16:50 51.01435 4.37548 11553 ft 359 kts 71°
2026-05-07 16:50 51.02265 4.41225 11000 ft 357 kts 71°
2026-05-07 16:50 51.03095 4.44902 10669 ft 348 kts 71°
2026-05-07 16:50 51.03891 4.48438 10542 ft 333 kts 71°
2026-05-07 16:51 51.04658 4.51841 10417 ft 321 kts 71°
2026-05-07 16:51 51.05394 4.55117 10298 ft 309 kts 71°
2026-05-07 16:51 51.06104 4.58289 10122 ft 301 kts 71°
2026-05-07 16:51 51.06798 4.61396 9987 ft 295 kts 71°
2026-05-07 16:52 51.07492 4.64514 9416 ft 305 kts 71°
2026-05-07 16:52 51.08191 4.67655 9227 ft 294 kts 71°
2026-05-07 16:52 51.08852 4.70624 8991 ft 277 kts 71°
2026-05-07 16:52 51.09487 4.73474 8522 ft 270 kts 71°
2026-05-07 16:53 51.10093 4.76275 8004 ft 266 kts 76°
2026-05-07 16:53 51.10228 4.79167 7479 ft 261 kts 99°
2026-05-07 16:53 51.09659 4.81868 6952 ft 258 kts 122°
2026-05-07 16:53 51.08516 4.83970 6443 ft 254 kts 143°
2026-05-07 16:54 51.06964 4.85248 5889 ft 251 kts 165°
2026-05-07 16:54 51.05250 4.85716 5321 ft 250 kts 172°
2026-05-07 16:54 51.03523 4.86002 4755 ft 249 kts 180°
2026-05-07 16:54 51.01818 4.85607 4248 ft 246 kts 197°
2026-05-07 16:55 51.00312 4.84517 4031 ft 230 kts 212°
2026-05-07 16:55 50.99095 4.83015 3912 ft 217 kts 219°
2026-05-07 16:55 50.97973 4.81531 3898 ft 204 kts 219°
2026-05-07 16:55 50.96903 4.80111 3733 ft 198 kts 222°
2026-05-07 16:56 50.96027 4.78441 3627 ft 197 kts 238°
2026-05-07 16:56 50.95454 4.76455 3339 ft 198 kts 250°
2026-05-07 16:56 50.94498 4.72383 2826 ft 196 kts 250°
2026-05-07 16:57 50.94032 4.70370 2597 ft 192 kts 250°
2026-05-07 16:57 50.93579 4.68393 2340 ft 189 kts 250°
2026-05-07 16:57 50.93141 4.66481 2092 ft 186 kts 250°
2026-05-07 16:57 50.92704 4.64572 1834 ft 181 kts 250°
2026-05-07 16:58 50.92283 4.62735 1595 ft 173 kts 250°
2026-05-07 16:58 50.91895 4.61042 1379 ft 153 kts 250°
2026-05-07 16:58 50.91544 4.59513 1171 ft 144 kts 250°
2026-05-07 16:58 50.91206 4.58041 967 ft 141 kts 251°
2026-05-07 16:59 50.90871 4.56597 737 ft 138 kts 251°
2026-05-07 16:59 50.90548 4.55157 573 ft 140 kts 252°
2026-05-07 16:59 50.90209 4.53713 400 ft 140 kts 252°
2026-05-07 16:59 50.89879 4.52266 220 ft 139 kts 252°
2026-05-07 17:00 50.89568 4.50902 176 ft 116 kts 250°
2026-05-07 17:00 50.89340 4.49927 177 ft 74 kts 250°
2026-05-07 17:00 50.89223 4.49383 176 ft 21 kts 274°
2026-05-07 17:00 50.89272 4.49228 172 ft 9 kts 311°
2026-05-07 17:01 50.89315 4.49147 168 ft 10 kts 310°
2026-05-07 17:01 50.89324 4.49132 167 ft 1 kts 310°
2026-05-07 17:01 50.89350 4.49081 166 ft 16 kts 310°
2026-05-07 17:01 50.89444 4.49016 160 ft 16 kts 14°
2026-05-07 17:02 50.89549 4.49059 156 ft 12 kts 15°
2026-05-07 17:02 50.89640 4.49138 153 ft 18 kts 39°
2026-05-07 17:02 50.89784 4.49201 144 ft 25 kts 14°
2026-05-07 17:02 50.89975 4.49280 133 ft 32 kts 14°
2026-05-07 17:03 50.90201 4.49371 128 ft 35 kts 15°
2026-05-07 17:03 50.90331 4.49361 124 ft 15 kts 287°
2026-05-07 17:03 50.90293 4.49205 123 ft 17 kts 245°
2026-05-07 17:03 50.90231 4.49089 128 ft 12 kts 165°
2026-05-07 17:04 50.90198 4.49124 129 ft 4 kts 154°
2026-05-07 17:04 50.90193 4.49128 129 ft 0 kts 154°
2026-05-07 17:04 50.90190 4.49130 129 ft 2 kts 154°
2026-05-07 17:04 50.90187 4.49132 129 ft 0 kts 154°